Location: Sauerland
(51.1981°N, 7.8053°E)
Time: 09:11:53
(UTC+02:00)

ISS - Visible Passes

Search period start: 30 May 2017 00:00
Search period end: 09 June 2017 00:00
Orbit: 402 x 408 km, 51.6° (Epoch: 30 May)

Date Brightness Start Highest point End Pass type
(mag) Time Alt. Az. Time Alt. Az. Time Alt. Az.
30 May -3.4 01:34:58 10° W 01:37:45 42° SW 01:37:45 42° SW visible
30 May -3.7 23:06:21 10° W 23:09:40 80° N 23:12:58 10° E visible
31 May -3.9 00:42:53 10° W 00:46:09 63° SSW 00:47:05 41° SE visible
31 May -3.7 22:14:15 10° W 22:17:34 85° N 22:20:53 10° E visible
31 May -3.9 23:50:48 10° W 23:54:07 81° S 23:56:30 17° ESE visible
01 Jun -2.1 01:27:30 10° W 01:29:07 21° WSW 01:29:07 21° WSW visible
01 Jun -3.8 22:58:42 10° W 23:02:01 86° N 23:05:19 10° E visible
02 Jun -3.3 00:35:16 10° W 00:38:22 39° SSW 00:38:36 38° SSW visible
02 Jun -3.7 23:43:07 10° W 23:46:22 55° SSW 23:48:06 24° SE visible
03 Jun -1.3 01:20:23 10° WSW 01:20:45 11° WSW 01:20:45 11° WSW visible
03 Jun -3.8 22:50:59 10° W 22:54:18 74° SSW 22:57:35 10° ESE visible
04 Jun -2.4 00:27:47 10° W 00:30:18 23° SW 00:30:18 23° SW visible
04 Jun -2.9 23:35:28 10° W 23:38:29 34° SSW 23:39:52 23° SSE visible
05 Jun -3.4 22:43:15 10° W 22:46:27 49° SSW 22:49:28 11° SE visible
06 Jun -1.5 00:20:51 10° WSW 00:22:06 13° SW 00:22:06 13° SW visible
06 Jun -2.0 23:28:00 10° W 23:30:27 20° SW 23:31:44 16° S visible
07 Jun -2.6 22:35:33 10° W 22:38:29 29° SSW 22:41:23 10° SSE visible
08 Jun -1.3 23:21:33 10° SW 23:22:15 11° SW 23:22:58 10° SSW visible
